Time,TemperatureF,DewpointF,PressureIn,WindDirection,WindDirectionDegrees,WindSpeedMPH,WindSpeedGustMPH,Humidity,HourlyPrecipIn,Conditions,Clouds,dailyrainin,SoftwareType,DateUTC
2013-10-06 00:13:00,80.0,75.0,29.78,SSE,160,2.0,-999.0,86,-99.99,,,-99.99,,2013-10-06 05:13:00,
2013-10-06 00:22:00,80.0,75.0,29.77,South,180,1.0,-999.0,86,-99.99,,,-99.99,,2013-10-06 05:22:00,
2013-10-06 00:52:00,79.0,75.0,29.77,South,176,0.0,-999.0,87,-99.99,,,-99.99,,2013-10-06 05:52:00,
2013-10-06 01:12:00,79.0,75.0,29.77,SSW,192,1.0,-999.0,87,-99.99,,,-99.99,,2013-10-06 06:12:00,
2013-10-06 01:22:00,79.0,75.0,29.77,SSW,192,2.0,-999.0,88,-99.99,,,-99.99,,2013-10-06 06:22:00,
2013-10-06 01:42:00,78.0,74.0,29.78,SSW,200,2.0,-999.0,88,-99.99,,,-99.99,,2013-10-06 06:42:00,
2013-10-06 01:52:00,78.0,74.0,29.78,SSW,199,1.0,-999.0,88,-99.99,,,-99.99,,2013-10-06 06:52:00,
2013-10-06 02:11:00,78.0,74.0,29.78,SSW,204,1.0,-999.0,88,-99.99,,,-99.99,,2013-10-06 07:11:00,
2013-10-06 02:22:00,78.0,74.0,29.78,SSW,211,1.0,-999.0,88,-99.99,,,-99.99,,2013-10-06 07:22:00,
2013-10-06 02:52:00,77.0,73.0,29.78,SSW,211,0.0,-999.0,88,-99.99,,,-99.99,,2013-10-06 07:52:00,
2013-10-06 03:11:00,77.0,73.0,29.77,SSW,211,0.0,-999.0,88,-99.99,,,-99.99,,2013-10-06 08:11:00,
2013-10-06 03:22:00,77.0,74.0,29.77,SSW,211,0.0,-999.0,89,-99.99,,,-99.99,,2013-10-06 08:22:00,
2013-10-06 03:52:00,76.0,73.0,29.76,SSW,211,0.0,-999.0,89,-99.99,,,-99.99,,2013-10-06 08:52:00,
2013-10-06 04:11:00,76.0,73.0,29.77,SSW,211,0.0,-999.0,89,-99.99,,,-99.99,,2013-10-06 09:11:00,
2013-10-06 04:22:00,75.0,72.0,29.76,SSW,211,0.0,-999.0,90,-99.99,,,-99.99,,2013-10-06 09:22:00,
2013-10-06 04:53:00,75.0,72.0,29.76,SW,226,1.0,-999.0,90,-99.99,,,-99.99,,2013-10-06 09:53:00,
2013-10-06 05:13:00,76.0,73.0,29.77,West,262,1.0,-999.0,90,-99.99,,,-99.99,,2013-10-06 10:13:00,
2013-10-06 05:23:00,75.0,72.0,29.77,West,262,1.0,-999.0,90,-99.99,,,-99.99,,2013-10-06 10:23:00,
2013-10-06 05:53:00,76.0,73.0,29.78,NNW,331,3.0,-999.0,91,-99.99,,,-99.99,,2013-10-06 10:53:00,
2013-10-06 06:12:00,76.0,73.0,29.78,NNW,331,1.0,-999.0,91,-99.99,,,-99.99,,2013-10-06 11:12:00,
2013-10-06 06:21:00,76.0,73.0,29.78,NW,316,2.0,-999.0,91,-99.99,,,-99.99,,2013-10-06 11:21:00,
2013-10-06 06:52:00,76.0,73.0,29.79,NNW,345,2.0,-999.0,91,-99.99,,,-99.99,,2013-10-06 11:52:00,
2013-10-06 07:12:00,76.0,73.0,29.80,NNW,334,5.0,-999.0,91,-99.99,,,-99.99,,2013-10-06 12:12:00,
2013-10-06 07:22:00,76.0,73.0,29.80,North,355,6.0,-999.0,91,-99.99,,,-99.99,,2013-10-06 12:22:00,
2013-10-06 07:52:00,76.0,73.0,29.82,NNW,343,10.0,-999.0,91,-99.99,,,-99.99,,2013-10-06 12:52:00,
2013-10-06 08:11:00,76.0,73.0,29.82,North,0,10.0,-999.0,90,-99.99,,,-99.99,,2013-10-06 13:11:00,
2013-10-06 08:21:00,77.0,74.0,29.83,NNW,347,15.0,-999.0,89,-99.99,,,-99.99,,2013-10-06 13:21:00,
2013-10-06 08:42:00,77.0,73.0,29.83,NNE,18,19.0,-999.0,88,-99.99,,,-99.99,,2013-10-06 13:42:00,
2013-10-06 08:52:00,75.0,71.0,29.84,North,359,19.0,-999.0,88,-99.99,,,-99.99,,2013-10-06 13:52:00,
2013-10-06 09:11:00,73.0,69.0,29.85,North,359,18.0,-999.0,86,-99.99,,,-99.99,,2013-10-06 14:11:00,
2013-10-06 09:22:00,72.0,68.0,29.86,North,0,19.0,-999.0,86,-99.99,,,-99.99,,2013-10-06 14:22:00,
2013-10-06 09:42:00,71.0,67.0,29.87,North,0,23.0,-999.0,86,-99.99,,,-99.99,,2013-10-06 14:42:00,
2013-10-06 09:52:00,71.0,67.0,29.88,North,359,19.0,-999.0,87,-99.99,,,-99.99,,2013-10-06 14:52:00,
2013-10-06 10:11:00,70.0,66.0,29.90,NE,36,20.0,-999.0,87,-99.99,,,-99.99,,2013-10-06 15:11:00,
2013-10-06 10:22:00,70.0,66.0,29.90,North,359,17.0,-999.0,86,-99.99,,,-99.99,,2013-10-06 15:22:00,
2013-10-06 10:53:00,71.0,67.0,29.91,North,358,18.0,-999.0,87,-99.99,,,-99.99,,2013-10-06 15:53:00,
2013-10-06 11:12:00,71.0,67.0,29.91,North,359,17.0,-999.0,88,-99.99,,,-99.99,,2013-10-06 16:12:00,
2013-10-06 11:23:00,71.0,67.0,29.91,North,351,15.0,-999.0,87,-99.99,,,-99.99,,2013-10-06 16:23:00,
2013-10-06 11:42:00,70.0,66.0,29.91,North,4,15.0,-999.0,87,-99.99,,,-99.99,,2013-10-06 16:42:00,
2013-10-06 11:53:00,70.0,66.0,29.92,North,358,16.0,-999.0,87,-99.99,,,-99.99,,2013-10-06 16:53:00,
2013-10-06 12:12:00,70.0,66.0,29.92,North,5,19.0,-999.0,87,-99.99,,,-99.99,,2013-10-06 17:12:00,
2013-10-06 12:22:00,72.0,68.0,29.91,NNW,342,17.0,-999.0,88,-99.99,,,-99.99,,2013-10-06 17:22:00,
2013-10-06 12:42:00,72.0,68.0,29.91,North,3,15.0,-999.0,87,-99.99,,,-99.99,,2013-10-06 17:42:00,
2013-10-06 12:52:00,73.0,69.0,29.91,NNE,18,16.0,-999.0,86,-99.99,,,-99.99,,2013-10-06 17:52:00,
2013-10-06 13:12:00,74.0,69.0,29.90,NNE,27,17.0,-999.0,85,-99.99,,,-99.99,,2013-10-06 18:12:00,
2013-10-06 13:22:00,74.0,69.0,29.90,North,6,14.0,-999.0,85,-99.99,,,-99.99,,2013-10-06 18:22:00,
2013-10-06 13:42:00,73.0,68.0,29.90,North,0,17.0,-999.0,84,-99.99,,,-99.99,,2013-10-06 18:42:00,
2013-10-06 13:52:00,72.0,68.0,29.91,NNW,342,12.0,-999.0,86,-99.99,,,-99.99,,2013-10-06 18:52:00,
2013-10-06 14:11:00,71.0,66.0,29.91,North,351,15.0,-999.0,85,-99.99,,,-99.99,,2013-10-06 19:11:00,
2013-10-06 14:22:00,71.0,67.0,29.90,North,353,17.0,-999.0,86,-99.99,,,-99.99,,2013-10-06 19:22:00,
2013-10-06 14:42:00,70.0,65.0,29.90,NNW,339,17.0,-999.0,85,-99.99,,,-99.99,,2013-10-06 19:42:00,
2013-10-06 14:52:00,69.0,64.0,29.90,North,0,16.0,-999.0,85,-99.99,,,-99.99,,2013-10-06 19:52:00,
2013-10-06 15:11:00,69.0,65.0,29.90,NW,319,18.0,-999.0,86,-99.99,,,-99.99,,2013-10-06 20:11:00,
2013-10-06 15:22:00,69.0,64.0,29.90,North,0,18.0,-999.0,85,-99.99,,,-99.99,,2013-10-06 20:22:00,
2013-10-06 15:52:00,69.0,64.0,29.89,North,0,15.0,-999.0,83,-99.99,,,-99.99,,2013-10-06 20:52:00,
2013-10-06 16:12:00,70.0,65.0,29.89,North,359,16.0,-999.0,84,-99.99,,,-99.99,,2013-10-06 21:12:00,
2013-10-06 16:22:00,70.0,64.0,29.90,North,352,17.0,-999.0,81,-99.99,,,-99.99,,2013-10-06 21:22:00,
2013-10-06 16:44:00,70.0,64.0,29.90,North,1,16.0,-999.0,81,-99.99,,,-99.99,,2013-10-06 21:44:00,
2013-10-06 16:54:00,70.0,64.0,29.90,North,359,15.0,-999.0,82,-99.99,,,-99.99,,2013-10-06 21:54:00,
2013-10-06 17:13:00,71.0,64.0,29.90,North,1,12.0,-999.0,79,-99.99,,,-99.99,,2013-10-06 22:13:00,
2013-10-06 17:24:00,71.0,63.0,29.91,North,0,14.0,-999.0,77,-99.99,,,-99.99,,2013-10-06 22:24:00,
2013-10-06 17:42:00,71.0,63.0,29.91,NW,307,11.0,-999.0,75,-99.99,,,-99.99,,2013-10-06 22:42:00,
2013-10-06 17:53:00,71.0,65.0,29.91,North,359,14.0,-999.0,80,-99.99,,,-99.99,,2013-10-06 22:53:00,
2013-10-06 18:12:00,71.0,65.0,29.91,North,359,13.0,-999.0,80,-99.99,,,-99.99,,2013-10-06 23:12:00,
2013-10-06 18:22:00,71.0,63.0,29.91,North,359,13.0,-999.0,77,-99.99,,,-99.99,,2013-10-06 23:22:00,
2013-10-06 18:53:00,71.0,63.0,29.92,NNE,13,12.0,-999.0,77,-99.99,,,-99.99,,2013-10-06 23:53:00,
2013-10-06 19:12:00,71.0,63.0,29.93,North,0,10.0,-999.0,75,-99.99,,,-99.99,,2013-10-07 00:12:00,
2013-10-06 19:22:00,71.0,63.0,29.93,North,1,9.0,-999.0,77,-99.99,,,-99.99,,2013-10-07 00:22:00,
2013-10-06 19:42:00,71.0,63.0,29.93,North,356,7.0,-999.0,76,-99.99,,,-99.99,,2013-10-07 00:42:00,
2013-10-06 19:52:00,71.0,63.0,29.93,North,359,8.0,-999.0,77,-99.99,,,-99.99,,2013-10-07 00:52:00,
2013-10-06 20:11:00,71.0,63.0,29.91,North,358,8.0,-999.0,76,-99.99,,,-99.99,,2013-10-07 01:11:00,
2013-10-06 20:22:00,72.0,62.0,29.91,NNE,24,10.0,-999.0,70,-99.99,,,-99.99,,2013-10-07 01:22:00,
2013-10-06 20:42:00,73.0,62.0,29.91,NNE,28,12.0,-999.0,69,-99.99,,,-99.99,,2013-10-07 01:42:00,
2013-10-06 20:53:00,73.0,63.0,29.91,North,1,11.0,-999.0,70,-99.99,,,-99.99,,2013-10-07 01:53:00,
2013-10-06 21:12:00,72.0,62.0,29.92,North,356,7.0,-999.0,70,-99.99,,,-99.99,,2013-10-07 02:12:00,
2013-10-06 21:22:00,71.0,61.0,29.93,NNW,345,5.0,-999.0,70,-99.99,,,-99.99,,2013-10-07 02:22:00,
2013-10-06 21:42:00,71.0,61.0,29.93,NNW,341,5.0,-999.0,70,-99.99,,,-99.99,,2013-10-07 02:42:00,
2013-10-06 21:53:00,70.0,59.0,29.94,NNW,333,5.0,-999.0,69,-99.99,,,-99.99,,2013-10-07 02:53:00,
2013-10-06 22:12:00,71.0,60.0,29.93,NNW,327,7.0,-999.0,68,-99.99,,,-99.99,,2013-10-07 03:12:00,
2013-10-06 22:22:00,70.0,59.0,29.93,NW,325,6.0,-999.0,69,-99.99,,,-99.99,,2013-10-07 03:22:00,
2013-10-06 22:54:00,69.0,59.0,29.95,WNW,297,4.0,-999.0,70,-99.99,,,-99.99,,2013-10-07 03:54:00,
2013-10-06 23:13:00,68.0,58.0,29.96,WNW,295,3.0,-999.0,71,-99.99,,,-99.99,,2013-10-07 04:13:00,
2013-10-06 23:24:00,67.0,58.0,29.96,WNW,292,2.0,-999.0,73,-99.99,,,-99.99,,2013-10-07 04:24:00,
2013-10-06 23:44:00,67.0,58.0,29.97,WSW,257,3.0,-999.0,74,-99.99,,,-99.99,,2013-10-07 04:44:00,
2013-10-06 23:53:00,66.0,59.0,29.96,West,269,3.0,-999.0,78,-99.99,,,-99.99,,2013-10-07 04:53:00,